Home > Time Zones > World Clock > Weather > Qatar > Doha > Past weeks

Flag for Qatar Weather past 2 weeks in Doha, Qatar

Now
82 °F

Passing clouds.


Feels Like: 84 °F
Forecast: 79 / 99 °F
Wind: 5 mph from Southwest

Location: Doha International Airport


UV Index: 7 (High)

Visibility: N/A


Pressure: 29.83 "Hg

Humidity: 55%

Dew point: 64 °F

Location of DohaLocation

Historic Weather in Doha

°F

Doha temperature yesterday

Maximum temperature yesterday: 91 °F (at 12:00 PM)
Minimum temperature yesterday: 77 °F (at 4:30 AM)
Average temperature yesterday: 85 °F

Past Weeks' High & Low Weather Summary

 TemperatureHumidityPressure
High104 °F (Apr 18, 1:00 PM)94% (Apr 22, 1:00 AM)29.98 "Hg (Apr 22, 1:00 AM)
Low72 °F (Apr 9, 5:00 AM)10% (Apr 18, 3:00 PM)29.74 "Hg (Apr 21, 2:00 AM)
Average87 °F40%29.87 "Hg
* Reported Apr 9 5:00 AM — Apr 24 5:00 AM, Doha, Weather by CustomWeather, © 2014

Note: Actual official high and low records may vary slightly from our data, if they occured in-between our weather recording intervals... More about our weather records

Advertising

Historic Weather Conditions — Data for Previous 24 hours

 ConditionsComfort  
Time TempWeatherWind HumidityBarometerVisibility
5:00 AM
Apr 24
81 °FPassing clouds.5 mph66%29.80 "HgN/A
4:00 AM81 °FClear.7 mph74%29.77 "Hg10 mi
3:00 AM81 °FClear.7 mph70%29.77 "Hg10 mi
2:30 AM82 °FClear.6 mph58%29.77 "Hg10 mi
2:00 AM82 °FClear.6 mph58%29.77 "Hg10 mi
1:30 AM82 °FPassing clouds.8 mph62%29.77 "HgN/A
1:00 AM84 °FPassing clouds.6 mph58%29.77 "HgN/A
12:30 AM84 °FPassing clouds.6 mph58%29.80 "HgN/A
12:00 AM84 °FClear.6 mph58%29.80 "Hg10 mi
11:00 PM
Apr 23
84 °FClear.7 mph58%29.80 "Hg10 mi
10:30 PM84 °FClear.6 mph62%29.83 "Hg10 mi
10:00 PM86 °FClear.7 mph55%29.83 "Hg10 mi
9:00 PM86 °FClear.7 mph55%29.86 "Hg10 mi
8:00 PM84 °FClear.5 mph66%29.86 "Hg10 mi
7:00 PM84 °FClear.8 mph70%29.86 "Hg10 mi
6:00 PM86 °FClear.7 mph62%29.86 "Hg10 mi
5:00 PM84 °FSunny.7 mph70%29.86 "Hg10 mi
4:30 PM86 °FSunny.7 mph66%29.86 "Hg10 mi
4:00 PM86 °FSunny.8 mph66%29.86 "Hg10 mi
3:00 PM90 °FSunny.12 mph55%29.89 "Hg10 mi
2:30 PM88 °FSunny.13 mph55%29.89 "Hg10 mi
2:00 PM90 °FPassing clouds.12 mph46%29.89 "HgN/A
1:30 PM90 °FPassing clouds.13 mph49%29.89 "HgN/A
1:00 PM90 °FSunny.12 mph41%29.92 "Hg10 mi
12:00 PM91 °FSunny.14 mph41%29.92 "Hg10 mi
11:30 AM90 °FSunny.13 mph43%29.92 "Hg10 mi
11:00 AM90 °FSunny.10 mph46%29.95 "Hg10 mi
10:30 AM90 °FSunny.10 mph43%29.95 "Hg10 mi
10:00 AM88 °FPassing clouds.12 mph38%29.95 "HgN/A
9:30 AM88 °FPassing clouds.10 mph55%29.95 "HgN/A
8:30 AM88 °FPassing clouds.8 mph40%29.95 "HgN/A
8:00 AM84 °FSunny.7 mph62%29.95 "Hg10 mi
7:30 AM82 °FSunny.7 mph66%29.95 "Hg10 mi
7:00 AM82 °FClear.7 mph66%29.92 "Hg6 mi
6:00 AM79 °FSunny.5 mph74%29.92 "Hg10 mi
Weather by CustomWeather, © 2014

See weather overview